Location: Bellerive
(46.9237°N, 7.0223°E)
Time: 00:28:12
(UTC+00:00)

ERS-1 Rocket - Pass Details

Date: 09 April 2020
Orbit: 754 x 757 km, 98.5° (Epoch: 04 June)

Event Time Altitude Azimuth Distance (km) Brightness Sun altitude
Exits shadow 20:47:00 62° 98° (E) 848 2.9 -23.9°
Maximum altitude 20:47:23 65° 72° (ENE) 832 3.0 -23.9°
Drops below altitude 10° 20:52:23 10° 351° (N) 2,292 6.2 -24.5°
Sets 20:54:42 0° 349° (N) 3,221 7.1 -24.8°
